UAL133 PKMJ-PHNL

Flight info

Callsign UAL133
Flight time N/A
Altitude 37000
Route MAJ R584 CHOKO OPACA4
Aircraft B38M/M-SDE1FGHILORVWXY/HB1

Departure

Time N/A
Airport Marshall Islands International Airport (PKMJ)

Arrival

Time 2026-04-30 22:06
Airport Daniel K. Inouye International Airport (PHNL)
Time Latitude Longitude Altitude Speed Heading
2026-04-30 19:59 15.54579 -172.36545 37052 ft 471 kts 61°
2026-04-30 20:00 15.56033 -172.33506 37056 ft 471 kts 61°
2026-04-30 20:00 15.58947 -172.27411 37059 ft 472 kts 61°
2026-04-30 20:01 15.63318 -172.18255 37058 ft 472 kts 61°
2026-04-30 20:01 15.66235 -172.12142 37060 ft 472 kts 61°
2026-04-30 20:02 15.70603 -172.02975 37060 ft 472 kts 61°
2026-04-30 20:03 15.74952 -171.93835 37060 ft 472 kts 61°
2026-04-30 20:03 15.77858 -171.87723 37055 ft 472 kts 61°
2026-04-30 20:04 15.80767 -171.81598 37063 ft 472 kts 61°
2026-04-30 20:05 15.85125 -171.72413 37059 ft 472 kts 61°
2026-04-30 20:05 15.89459 -171.63266 37058 ft 472 kts 61°
2026-04-30 20:06 15.92360 -171.57137 37060 ft 472 kts 61°
2026-04-30 20:06 15.95144 -171.50943 37060 ft 473 kts 62°
2026-04-30 20:07 15.97932 -171.44754 37060 ft 473 kts 62°
2026-04-30 20:08 16.02104 -171.35494 37064 ft 473 kts 62°
2026-04-30 20:08 16.04891 -171.29304 37064 ft 473 kts 62°
2026-04-30 20:09 16.07678 -171.23106 37064 ft 473 kts 62°
2026-04-30 20:09 16.11853 -171.13810 37063 ft 473 kts 62°
2026-04-30 20:10 16.16024 -171.04511 37062 ft 473 kts 62°
2026-04-30 20:11 16.20175 -170.95244 37063 ft 473 kts 62°
2026-04-30 20:11 16.22953 -170.89034 37065 ft 473 kts 62°
2026-04-30 20:12 16.27117 -170.79717 37064 ft 473 kts 62°
2026-04-30 20:13 16.29888 -170.73508 37067 ft 473 kts 62°
2026-04-30 20:13 16.32665 -170.67280 37070 ft 473 kts 62°
2026-04-30 20:14 16.35436 -170.61063 37068 ft 473 kts 62°
2026-04-30 20:14 16.38206 -170.54838 37068 ft 473 kts 62°
2026-04-30 20:15 16.40971 -170.48619 37069 ft 474 kts 62°
2026-04-30 20:15 16.43737 -170.42393 37071 ft 474 kts 62°
2026-04-30 20:16 16.46504 -170.36158 37068 ft 474 kts 62°
2026-04-30 20:16 16.49268 -170.29925 37071 ft 474 kts 62°
2026-04-30 20:17 16.52033 -170.23684 37072 ft 474 kts 62°
2026-04-30 20:17 16.54776 -170.17485 37070 ft 474 kts 62°
2026-04-30 20:18 16.57539 -170.11237 37074 ft 474 kts 62°
2026-04-30 20:18 16.60301 -170.04984 37073 ft 474 kts 62°
2026-04-30 20:19 16.63058 -169.98735 37076 ft 474 kts 62°
2026-04-30 20:19 16.65815 -169.92482 37073 ft 474 kts 62°
2026-04-30 20:20 16.68574 -169.86219 37073 ft 475 kts 62°
2026-04-30 20:20 16.71309 -169.80002 37077 ft 475 kts 62°
2026-04-30 20:21 16.74063 -169.73737 37075 ft 475 kts 62°
2026-04-30 20:21 16.76817 -169.67468 37075 ft 475 kts 62°
2026-04-30 20:22 16.79567 -169.61198 37072 ft 475 kts 62°
2026-04-30 20:22 16.82319 -169.54919 37072 ft 475 kts 62°
2026-04-30 20:23 16.84603 -169.49705 37078 ft 475 kts 62°
2026-04-30 20:23 16.87353 -169.43418 37073 ft 476 kts 62°
2026-04-30 20:24 16.90100 -169.37133 37072 ft 476 kts 62°
2026-04-30 20:24 16.92844 -169.30848 37077 ft 476 kts 62°
2026-04-30 20:25 16.96958 -169.21415 37080 ft 476 kts 62°
2026-04-30 20:26 17.01070 -169.11973 37076 ft 476 kts 62°
2026-04-30 20:26 17.05159 -169.02567 37079 ft 476 kts 62°
2026-04-30 20:27 17.10631 -168.89961 37080 ft 476 kts 62°
2026-04-30 20:28 17.16100 -168.77335 37082 ft 476 kts 63°
2026-04-30 20:30 17.22924 -168.61544 37083 ft 476 kts 63°
2026-04-30 20:31 17.31086 -168.42606 37083 ft 476 kts 63°
2026-04-30 20:32 17.37884 -168.26788 37087 ft 476 kts 63°
2026-04-30 20:33 17.41958 -168.17291 37090 ft 476 kts 63°
2026-04-30 20:34 17.46024 -168.07794 37089 ft 476 kts 63°
2026-04-30 20:35 17.50087 -167.98290 37086 ft 476 kts 63°
2026-04-30 20:35 17.54121 -167.88840 37093 ft 476 kts 63°
2026-04-30 20:36 17.56825 -167.82499 37085 ft 476 kts 63°
2026-04-30 20:37 17.60838 -167.73072 37091 ft 476 kts 63°
2026-04-30 20:37 17.63534 -167.66732 37099 ft 476 kts 63°
2026-04-30 20:38 17.66234 -167.60377 37085 ft 476 kts 63°
2026-04-30 20:38 17.68908 -167.54074 37099 ft 476 kts 63°
2026-04-30 20:39 17.72944 -167.44549 37094 ft 476 kts 63°
2026-04-30 20:40 17.76973 -167.35028 37100 ft 476 kts 63°
2026-04-30 20:40 17.79656 -167.28678 37092 ft 476 kts 63°
2026-04-30 20:41 17.83658 -167.19194 37099 ft 475 kts 63°
2026-04-30 20:41 17.86337 -167.12837 37097 ft 475 kts 63°
2026-04-30 20:42 17.89009 -167.06489 37095 ft 475 kts 63°
2026-04-30 20:43 17.93013 -166.96965 37098 ft 475 kts 63°
2026-04-30 20:43 17.95679 -166.90616 37097 ft 475 kts 63°
2026-04-30 20:44 17.99649 -166.81145 37102 ft 475 kts 63°
2026-04-30 20:45 18.04952 -166.68473 37101 ft 475 kts 63°
2026-04-30 20:45 18.07610 -166.62111 37100 ft 475 kts 63°
2026-04-30 20:46 18.12918 -166.49386 37100 ft 475 kts 63°
2026-04-30 20:47 18.16890 -166.39846 37100 ft 475 kts 63°
2026-04-30 20:48 18.20857 -166.30303 37104 ft 475 kts 63°
2026-04-30 20:48 18.23483 -166.23976 37106 ft 475 kts 63°
2026-04-30 20:49 18.26123 -166.17608 37104 ft 475 kts 63°
2026-04-30 20:50 18.30079 -166.08053 37104 ft 474 kts 63°
2026-04-30 20:50 18.32716 -166.01676 37102 ft 474 kts 63°
2026-04-30 20:51 18.35344 -165.95315 37104 ft 474 kts 63°
2026-04-30 20:51 18.39284 -165.85761 37105 ft 474 kts 63°
2026-04-30 20:52 18.41889 -165.79435 37105 ft 474 kts 63°
2026-04-30 20:53 18.45817 -165.69887 37109 ft 474 kts 63°
2026-04-30 20:53 18.48433 -165.63516 37111 ft 473 kts 63°
2026-04-30 20:54 18.52349 -165.53968 37112 ft 473 kts 63°
2026-04-30 20:55 18.56260 -165.44417 37111 ft 473 kts 63°
2026-04-30 20:55 18.58864 -165.38050 37103 ft 473 kts 63°
2026-04-30 20:56 18.62748 -165.28538 37109 ft 473 kts 63°
2026-04-30 20:57 18.66640 -165.18989 37105 ft 472 kts 63°
2026-04-30 20:57 18.69230 -165.12626 37111 ft 472 kts 63°
2026-04-30 20:58 18.73112 -165.03077 37112 ft 472 kts 64°
2026-04-30 20:58 18.75693 -164.96716 37111 ft 472 kts 64°
2026-04-30 20:59 18.79562 -164.87173 37113 ft 471 kts 64°
2026-04-30 21:00 18.84709 -164.74447 37115 ft 471 kts 64°
2026-04-30 21:01 18.88563 -164.64901 37113 ft 471 kts 64°
2026-04-30 21:02 18.92405 -164.55369 37116 ft 470 kts 64°
2026-04-30 21:02 18.94965 -164.49007 37118 ft 470 kts 64°
2026-04-30 21:03 18.97503 -164.42694 37113 ft 470 kts 64°
2026-04-30 21:03 19.00055 -164.36336 37112 ft 470 kts 64°
2026-04-30 21:04 19.02603 -164.29984 37118 ft 470 kts 64°
2026-04-30 21:04 19.06423 -164.20444 37121 ft 469 kts 64°
2026-04-30 21:05 19.08964 -164.14089 37112 ft 469 kts 64°
2026-04-30 21:05 19.11503 -164.07732 37114 ft 469 kts 64°
2026-04-30 21:06 19.14038 -164.01378 37124 ft 468 kts 64°
2026-04-30 21:06 19.16567 -163.95029 37115 ft 468 kts 64°
2026-04-30 21:07 19.19078 -163.88722 37114 ft 468 kts 64°
2026-04-30 21:07 19.21600 -163.82378 37119 ft 467 kts 64°
2026-04-30 21:08 19.24116 -163.76042 37117 ft 467 kts 64°
2026-04-30 21:08 19.26631 -163.69701 37118 ft 467 kts 64°
2026-04-30 21:09 19.29144 -163.63356 37116 ft 467 kts 64°
2026-04-30 21:09 19.31655 -163.57013 37119 ft 467 kts 64°
2026-04-30 21:10 19.34162 -163.50671 37118 ft 467 kts 64°
2026-04-30 21:10 19.36667 -163.44329 37115 ft 467 kts 64°
2026-04-30 21:11 19.38746 -163.39059 37120 ft 466 kts 64°
2026-04-30 21:11 19.41242 -163.32725 37119 ft 466 kts 64°
2026-04-30 21:12 19.43738 -163.26383 37119 ft 466 kts 64°
2026-04-30 21:12 19.46228 -163.20048 37121 ft 465 kts 64°
2026-04-30 21:13 19.48715 -163.13716 37122 ft 465 kts 64°
2026-04-30 21:13 19.51198 -163.07383 37121 ft 465 kts 64°
2026-04-30 21:14 19.53675 -163.01061 37119 ft 465 kts 64°
2026-04-30 21:14 19.56147 -162.94744 37119 ft 464 kts 64°
2026-04-30 21:15 19.58608 -162.88447 37121 ft 464 kts 64°
2026-04-30 21:15 19.61080 -162.82114 37116 ft 464 kts 64°
2026-04-30 21:16 19.63545 -162.75794 37118 ft 464 kts 64°
2026-04-30 21:16 19.66020 -162.69478 37118 ft 463 kts 63°
2026-04-30 21:17 19.68553 -162.63179 37120 ft 463 kts 63°
2026-04-30 21:17 19.71079 -162.56897 37123 ft 463 kts 63°
2026-04-30 21:18 19.73592 -162.50637 37122 ft 463 kts 63°
2026-04-30 21:18 19.76113 -162.44352 37121 ft 463 kts 63°
2026-04-30 21:19 19.78634 -162.38059 37119 ft 463 kts 63°
2026-04-30 21:19 19.81149 -162.31773 37122 ft 463 kts 63°
2026-04-30 21:20 19.83662 -162.25483 37124 ft 462 kts 63°
2026-04-30 21:20 19.86170 -162.19201 37122 ft 462 kts 63°
2026-04-30 21:21 19.88674 -162.12921 37122 ft 462 kts 63°
2026-04-30 21:22 19.92427 -162.03493 37124 ft 461 kts 63°
2026-04-30 21:23 19.97395 -161.90988 37124 ft 461 kts 63°
2026-04-30 21:23 20.01129 -161.81569 37120 ft 460 kts 63°
2026-04-30 21:24 20.03611 -161.75298 37119 ft 460 kts 63°
2026-04-30 21:24 20.06090 -161.69027 37124 ft 460 kts 63°
2026-04-30 21:25 20.09806 -161.59614 37128 ft 460 kts 63°
2026-04-30 21:26 20.13517 -161.50198 37118 ft 459 kts 63°
2026-04-30 21:27 20.17202 -161.40829 37123 ft 459 kts 63°
2026-04-30 21:27 20.19664 -161.34559 37123 ft 459 kts 63°
2026-04-30 21:28 20.23352 -161.25155 37131 ft 458 kts 63°
2026-04-30 21:29 20.27032 -161.15752 37120 ft 458 kts 63°
2026-04-30 21:30 20.33152 -161.00081 37121 ft 458 kts 63°
2026-04-30 21:31 20.39017 -160.84310 37134 ft 459 kts 66°
2026-04-30 21:32 20.41982 -160.74649 37128 ft 460 kts 68°
2026-04-30 21:32 20.43898 -160.68149 37129 ft 459 kts 68°
2026-04-30 21:33 20.46773 -160.58400 37129 ft 459 kts 68°
2026-04-30 21:34 20.48687 -160.51902 37128 ft 459 kts 68°
2026-04-30 21:34 20.51383 -160.42728 37130 ft 459 kts 68°
2026-04-30 21:35 20.53277 -160.36272 37128 ft 458 kts 68°
2026-04-30 21:35 20.55126 -160.29959 36630 ft 445 kts 68°
2026-04-30 21:36 20.56046 -160.26817 36014 ft 444 kts 68°
2026-04-30 21:36 20.56965 -160.23672 35453 ft 442 kts 68°
2026-04-30 21:37 20.59677 -160.14384 33882 ft 432 kts 68°
2026-04-30 21:37 20.60566 -160.11337 33315 ft 428 kts 68°
2026-04-30 21:37 20.61447 -160.08313 32799 ft 424 kts 68°
2026-04-30 21:37 20.62317 -160.05325 32317 ft 419 kts 68°
2026-04-30 21:38 20.63178 -160.02365 31835 ft 415 kts 68°
2026-04-30 21:38 20.64029 -159.99436 31356 ft 411 kts 68°
2026-04-30 21:38 20.64872 -159.96534 30887 ft 407 kts 68°
2026-04-30 21:38 20.65708 -159.93657 30424 ft 404 kts 68°
2026-04-30 21:39 20.66535 -159.90807 29917 ft 400 kts 68°
2026-04-30 21:39 20.67343 -159.88018 29436 ft 396 kts 68°
2026-04-30 21:39 20.68154 -159.85222 28999 ft 391 kts 68°
2026-04-30 21:39 20.68951 -159.82467 28579 ft 386 kts 67°
2026-04-30 21:40 20.69739 -159.79744 28165 ft 382 kts 67°
2026-04-30 21:40 20.70518 -159.77049 27750 ft 377 kts 67°
2026-04-30 21:40 20.71289 -159.74382 27337 ft 374 kts 67°
2026-04-30 21:40 20.72050 -159.71748 26940 ft 370 kts 67°
2026-04-30 21:41 20.72803 -159.69138 26555 ft 366 kts 67°
2026-04-30 21:41 20.73552 -159.66542 26167 ft 363 kts 67°
2026-04-30 21:41 20.74292 -159.63975 25787 ft 360 kts 67°
2026-04-30 21:41 20.75026 -159.61428 25412 ft 357 kts 67°
2026-04-30 21:42 20.75752 -159.58904 25043 ft 355 kts 67°
2026-04-30 21:42 20.76475 -159.56394 24677 ft 352 kts 67°
2026-04-30 21:42 20.77192 -159.53901 24313 ft 350 kts 67°
2026-04-30 21:42 20.77904 -159.51421 23950 ft 348 kts 67°
2026-04-30 21:43 20.78612 -159.48956 23562 ft 346 kts 67°
2026-04-30 21:43 20.79315 -159.46505 23152 ft 344 kts 67°
2026-04-30 21:43 20.80013 -159.44076 22784 ft 340 kts 67°
2026-04-30 21:43 20.80703 -159.41669 22428 ft 337 kts 67°
2026-04-30 21:44 20.81385 -159.39290 22090 ft 333 kts 68°
2026-04-30 21:44 20.82046 -159.36981 21752 ft 330 kts 68°
2026-04-30 21:44 20.82686 -159.34743 21422 ft 327 kts 68°
2026-04-30 21:44 20.83348 -159.32430 21090 ft 324 kts 68°
2026-04-30 21:45 20.83996 -159.30165 20762 ft 321 kts 68°
2026-04-30 21:45 20.84647 -159.27888 20432 ft 319 kts 68°
2026-04-30 21:45 20.85293 -159.25626 20106 ft 316 kts 68°
2026-04-30 21:45 20.85932 -159.23386 19789 ft 314 kts 68°
2026-04-30 21:46 20.86568 -159.21159 19459 ft 312 kts 69°
2026-04-30 21:46 20.87198 -159.18949 19136 ft 310 kts 69°
2026-04-30 21:46 20.87824 -159.16753 18823 ft 308 kts 69°
2026-04-30 21:46 20.88446 -159.14567 18505 ft 306 kts 69°
2026-04-30 21:47 20.89065 -159.12394 18151 ft 304 kts 69°
2026-04-30 21:47 20.89674 -159.10256 17819 ft 302 kts 69°
2026-04-30 21:47 20.90282 -159.08115 17496 ft 299 kts 69°
2026-04-30 21:47 20.90885 -159.05996 17268 ft 299 kts 69°
2026-04-30 21:48 20.91496 -159.03845 16988 ft 305 kts 70°
2026-04-30 21:48 20.92116 -159.01664 16689 ft 307 kts 70°
2026-04-30 21:48 20.92737 -158.99476 16377 ft 306 kts 70°
2026-04-30 21:48 20.93353 -158.97302 16062 ft 304 kts 70°
2026-04-30 21:49 20.93963 -158.95149 15747 ft 301 kts 70°
2026-04-30 21:49 20.94568 -158.93016 15434 ft 298 kts 70°
2026-04-30 21:49 20.95159 -158.90932 15131 ft 296 kts 71°
2026-04-30 21:49 20.95753 -158.88835 14826 ft 293 kts 71°
2026-04-30 21:50 20.96342 -158.86751 14517 ft 291 kts 71°
2026-04-30 21:50 20.96926 -158.84686 14218 ft 289 kts 71°
2026-04-30 21:50 20.97507 -158.82631 13910 ft 287 kts 72°
2026-04-30 21:50 20.98083 -158.80591 13557 ft 286 kts 71°
2026-04-30 21:51 20.98656 -158.78563 13254 ft 283 kts 72°
2026-04-30 21:51 20.99222 -158.76555 12955 ft 280 kts 72°
2026-04-30 21:51 20.99783 -158.74569 12650 ft 277 kts 72°
2026-04-30 21:51 21.00337 -158.72606 12357 ft 275 kts 72°
2026-04-30 21:52 21.00885 -158.70658 12068 ft 273 kts 72°
2026-04-30 21:52 21.01437 -158.68700 11774 ft 277 kts 72°
2026-04-30 21:52 21.01998 -158.66708 11476 ft 280 kts 73°
2026-04-30 21:52 21.02560 -158.64709 11195 ft 281 kts 73°
2026-04-30 21:53 21.03123 -158.62707 10907 ft 281 kts 73°
2026-04-30 21:53 21.03685 -158.60709 10600 ft 281 kts 73°
2026-04-30 21:53 21.04242 -158.58726 10429 ft 274 kts 73°
2026-04-30 21:53 21.04787 -158.56789 10171 ft 271 kts 74°
2026-04-30 21:54 21.05327 -158.54863 9866 ft 269 kts 74°
2026-04-30 21:54 21.05856 -158.52980 9552 ft 267 kts 74°
2026-04-30 21:54 21.06387 -158.51086 9253 ft 264 kts 73°
2026-04-30 21:54 21.06912 -158.49212 8971 ft 261 kts 73°
2026-04-30 21:55 21.07432 -158.47360 8693 ft 259 kts 74°
2026-04-30 21:55 21.07946 -158.45523 8408 ft 256 kts 74°
2026-04-30 21:55 21.08455 -158.43707 8141 ft 253 kts 74°
2026-04-30 21:55 21.08957 -158.41911 7871 ft 250 kts 74°
2026-04-30 21:56 21.09454 -158.40136 7605 ft 248 kts 74°
2026-04-30 21:56 21.09871 -158.38641 7380 ft 246 kts 74°
2026-04-30 21:56 21.10361 -158.36892 7111 ft 244 kts 74°
2026-04-30 21:56 21.10845 -158.35158 6861 ft 242 kts 74°
2026-04-30 21:57 21.11326 -158.33437 6598 ft 241 kts 74°
2026-04-30 21:57 21.11812 -158.31697 6322 ft 246 kts 74°
2026-04-30 21:57 21.12305 -158.29930 6030 ft 248 kts 74°
2026-04-30 21:57 21.12633 -158.28757 5853 ft 249 kts 74°
2026-04-30 21:58 21.13292 -158.26394 5486 ft 246 kts 73°
2026-04-30 21:58 21.13777 -158.24652 5218 ft 243 kts 73°
2026-04-30 21:58 21.14097 -158.23507 5042 ft 241 kts 74°
2026-04-30 21:58 21.14575 -158.21791 4771 ft 238 kts 74°
2026-04-30 21:59 21.15046 -158.20099 4518 ft 235 kts 73°
2026-04-30 21:59 21.15346 -158.19022 4411 ft 230 kts 74°
2026-04-30 21:59 21.15798 -158.17394 4193 ft 226 kts 73°
2026-04-30 22:00 21.16675 -158.14242 3812 ft 215 kts 73°
2026-04-30 22:00 21.18129 -158.11589 3524 ft 201 kts 56°
2026-04-30 22:00 21.18934 -158.10424 3399 ft 193 kts 56°
2026-04-30 22:01 21.19718 -158.09294 3293 ft 187 kts 55°
2026-04-30 22:01 21.20508 -158.08161 3157 ft 193 kts 56°
2026-04-30 22:01 21.21319 -158.06999 3075 ft 195 kts 55°
2026-04-30 22:01 21.22126 -158.05851 2994 ft 190 kts 55°
2026-04-30 22:02 21.22914 -158.04749 2758 ft 189 kts 55°
2026-04-30 22:02 21.23723 -158.03606 2500 ft 190 kts 54°
2026-04-30 22:02 21.24509 -158.02494 2250 ft 189 kts 56°
2026-04-30 22:02 21.25282 -158.01390 2024 ft 182 kts 53°
2026-04-30 22:03 21.26039 -158.00320 1770 ft 179 kts 54°
2026-04-30 22:03 21.26764 -157.99290 1516 ft 164 kts 53°
2026-04-30 22:03 21.27406 -157.98375 1359 ft 145 kts 53°
2026-04-30 22:03 21.27987 -157.97549 1146 ft 134 kts 53°
2026-04-30 22:04 21.28525 -157.96786 978 ft 123 kts 55°
2026-04-30 22:04 21.29019 -157.96080 803 ft 115 kts 54°
2026-04-30 22:04 21.29997 -157.94687 516 ft 121 kts 54°
2026-04-30 22:05 21.30517 -157.93957 357 ft 125 kts 54°
2026-04-30 22:05 21.31055 -157.93214 213 ft 124 kts 54°
2026-04-30 22:05 21.31556 -157.92488 43 ft 118 kts 56°
2026-04-30 22:05 21.31996 -157.91864 27 ft 90 kts 52°
2026-04-30 22:06 21.32314 -157.91411 26 ft 53 kts 51°
2026-04-30 22:06 21.32722 -157.90821 26 ft 48 kts 51°
2026-04-30 22:06 21.32882 -157.90651 27 ft 22 kts
2026-04-30 22:07 21.32994 -157.90724 29 ft 20 kts 328°
2026-04-30 22:07 21.33037 -157.90857 29 ft 22 kts 261°
2026-04-30 22:07 21.32950 -157.90999 28 ft 24 kts 232°
2026-04-30 22:07 21.32842 -157.91153 26 ft 27 kts 232°
2026-04-30 22:08 21.32771 -157.91345 26 ft 30 kts 271°
2026-04-30 22:08 21.32778 -157.91490 26 ft 3 kts 298°
2026-04-30 22:08 21.32805 -157.91505 26 ft 6 kts 357°
2026-04-30 22:08 21.32856 -157.91505 26 ft 8 kts 360°
2026-04-30 22:09 21.32876 -157.91505 26 ft 0 kts 360°